• In Germany
  • List of Countries
  • For 7 days
  • Water Temperature
  • Satellite Maps
  • Weather Map
  • Weather Widgets
  • user-avatar
    Login

    Hourly Weather Mykhailyuchka

    Today, 19 July, Thursday

    Time Temperature Precipitation Wind Pressure Humidity
    00:00 +19°C° 0.5 mm 2 mps 730 mmHg 94%
    01:00 +19°C° 0.5 mm 2 mps 730 mmHg 95%
    02:00 +19°C° 0.5 mm 2 mps 730 mmHg 95%
    03:00 +19°C° 0 mm 2 mps 730 mmHg 96%
    04:00 +18°C° 0 mm 2 mps 731 mmHg 97%
    05:00 +18°C° 0 mm 2 mps 731 mmHg 97%
    06:00 +19°C° 0 mm 2 mps 731 mmHg 95%
    07:00 +21°C° 0 mm 3 mps 731 mmHg 92%
    08:00 +22°C° 0 mm 3 mps 732 mmHg 90%
    09:00 +23°C° 0.2 mm 4 mps 732 mmHg 84%
    10:00 +25°C° 0.2 mm 4 mps 732 mmHg 79%
    11:00 +26°C° 0.2 mm 4 mps 732 mmHg 74%
    12:00 +27°C° 0.8 mm 4 mps 732 mmHg 73%
    13:00 +27°C° 0.8 mm 4 mps 732 mmHg 71%
    14:00 +27°C° 0.8 mm 4 mps 732 mmHg 70%
    15:00 +27°C° 0.6 mm 4 mps 732 mmHg 71%
    16:00 +27°C° 0.6 mm 4 mps 732 mmHg 72%
    17:00 +27°C° 0.6 mm 4 mps 732 mmHg 72%
    18:00 +25°C° 0.2 mm 3 mps 732 mmHg 77%
    19:00 +24°C° 0.2 mm 3 mps 732 mmHg 82%
    20:00 +21°C° 0.2 mm 3 mps 732 mmHg 87%
    21:00 +21°C° 0 mm 3 mps 732 mmHg 89%
    22:00 +20°C° 0 mm 3 mps 732 mmHg 91%
    23:00 +19°C° 0 mm 3 mps 732 mmHg 93%

    Tomorrow, 20 July, Friday

    Time Temperature Precipitation Wind Pressure Humidity
    00:00 +19°C° 0 mm 3 mps 732 mmHg 94%
    01:00 +18°C° 0 mm 3 mps 732 mmHg 95%
    02:00 +18°C° 0 mm 3 mps 732 mmHg 96%
    03:00 +18°C° 0 mm 3 mps 732 mmHg 96%
    04:00 +18°C° 0 mm 3 mps 732 mmHg 97%
    05:00 +18°C° 0 mm 4 mps 732 mmHg 97%
    06:00 +19°C° 0 mm 4 mps 733 mmHg 94%
    07:00 +19°C° 0 mm 5 mps 733 mmHg 91%
    08:00 +20°C° 0 mm 5 mps 733 mmHg 88%
    09:00 +21°C° 0.1 mm 5 mps 733 mmHg 86%
    10:00 +21°C° 0.1 mm 5 mps 733 mmHg 85%
    11:00 +22°C° 0.1 mm 5 mps 733 mmHg 83%
    12:00 +23°C° 0.1 mm 5 mps 733 mmHg 79%
    13:00 +25°C° 0.1 mm 5 mps 733 mmHg 76%
    14:00 +26°C° 0.1 mm 5 mps 733 mmHg 72%
    15:00 +26°C° 0.3 mm 5 mps 733 mmHg 73%
    16:00 +26°C° 0.3 mm 5 mps 733 mmHg 74%
    17:00 +26°C° 0.3 mm 5 mps 733 mmHg 75%
    18:00 +23°C° 0.1 mm 5 mps 733 mmHg 79%
    19:00 +22°C° 0.1 mm 4 mps 733 mmHg 84%
    20:00 +21°C° 0.1 mm 4 mps 733 mmHg 88%
    21:00 +21°C° 0 mm 4 mps 733 mmHg 90%
    22:00 +20°C° 0 mm 4 mps 733 mmHg 92%
    23:00 +19°C° 0 mm 4 mps 733 mmHg 94%

    Day after tomorrow, 21 July, Saturday

    Time Temperature Precipitation Wind Pressure Humidity
    00:00 +19°C° 0 mm 4 mps 733 mmHg 95%
    01:00 +19°C° 0 mm 4 mps 733 mmHg 95%
    02:00 +18°C° 0 mm 4 mps 733 mmHg 96%
    03:00 +18°C° 0 mm 4 mps 733 mmHg 96%
    04:00 +18°C° 0 mm 4 mps 734 mmHg 96%
    05:00 +17°C° 0 mm 5 mps 734 mmHg 96%
    06:00 +19°C° 0.1 mm 5 mps 734 mmHg 95%
    07:00 +19°C° 0.1 mm 5 mps 734 mmHg 94%
    08:00 +19°C° 0.1 mm 5 mps 734 mmHg 93%
    09:00 +20°C° 0 mm 5 mps 734 mmHg 91%
    10:00 +20°C° 0 mm 5 mps 735 mmHg 90%
    11:00 +20°C° 0 mm 5 mps 735 mmHg 88%
    12:00 +21°C° 0.2 mm 5 mps 735 mmHg 84%
    13:00 +22°C° 0.2 mm 5 mps 735 mmHg 80%
    14:00 +25°C° 0.2 mm 5 mps 735 mmHg 76%
    15:00 +25°C° 0.1 mm 5 mps 735 mmHg 74%
    16:00 +25°C° 0.1 mm 5 mps 735 mmHg 71%
    17:00 +26°C° 0.1 mm 5 mps 735 mmHg 69%
    18:00 +23°C° 0 mm 4 mps 735 mmHg 73%
    19:00 +22°C° 0 mm 4 mps 735 mmHg 77%
    20:00 +21°C° 0 mm 3 mps 735 mmHg 81%
    21:00 +20°C° 0 mm 3 mps 735 mmHg 83%
    22:00 +19°C° 0 mm 3 mps 735 mmHg 85%
    23:00 +18°C° 0 mm 3 mps 735 mmHg 86%

    22 July, Sunday

    Time Temperature Precipitation Wind Pressure Humidity
    00:00 +17°C° 0 mm 3 mps 735 mmHg 87%
    01:00 +17°C° 0 mm 3 mps 735 mmHg 87%
    02:00 +16°C° 0 mm 3 mps 735 mmHg 88%
    03:00 +16°C° 0 mm 3 mps 735 mmHg 87%
    04:00 +14°C° 0 mm 3 mps 735 mmHg 87%
    05:00 +14°C° 0 mm 3 mps 735 mmHg 86%
    06:00 +17°C° 0 mm 3 mps 735 mmHg 82%
    07:00 +18°C° 0 mm 3 mps 735 mmHg 78%
    08:00 +20°C° 0 mm 3 mps 735 mmHg 74%
    09:00 +21°C° 0 mm 3 mps 735 mmHg 70%
    10:00 +24°C° 0 mm 3 mps 735 mmHg 65%
    11:00 +25°C° 0 mm 4 mps 735 mmHg 60%
    12:00 +26°C° 0 mm 3 mps 735 mmHg 59%
    13:00 +26°C° 0 mm 3 mps 735 mmHg 57%
    14:00 +27°C° 0 mm 3 mps 735 mmHg 55%
    15:00 +27°C° 0 mm 3 mps 734 mmHg 56%
    16:00 +27°C° 0 mm 3 mps 734 mmHg 57%
    17:00 +27°C° 0 mm 2 mps 734 mmHg 58%
    18:00 +25°C° 0 mm 2 mps 734 mmHg 63%
    19:00 +23°C° 0 mm 2 mps 734 mmHg 69%
    20:00 +21°C° 0 mm 2 mps 734 mmHg 74%
    21:00 +20°C° 0 mm 2 mps 734 mmHg 76%
    22:00 +19°C° 0 mm 2 mps 734 mmHg 78%
    23:00 +18°C° 0 mm 2 mps 734 mmHg 79%

    23 July, Monday

    Time Temperature Precipitation Wind Pressure Humidity
    00:00 +18°C° 0 mm 2 mps 734 mmHg 82%
    01:00 +17°C° 0 mm 2 mps 734 mmHg 85%
    02:00 +18°C° 0 mm 1 mps 734 mmHg 88%
    03:00 +18°C° 0 mm 1 mps 734 mmHg 89%
    04:00 +18°C° 0 mm 1 mps 734 mmHg 91%
    05:00 +18°C° 0 mm 1 mps 735 mmHg 92%
    06:00 +19°C° 0 mm 1 mps 735 mmHg 88%
    07:00 +20°C° 0 mm 2 mps 735 mmHg 83%
    08:00 +23°C° 0 mm 2 mps 735 mmHg 78%
    09:00 +24°C° 0 mm 2 mps 735 mmHg 73%
    10:00 +25°C° 0 mm 3 mps 735 mmHg 67%
    11:00 +27°C° 0 mm 3 mps 735 mmHg 62%
    12:00 +27°C° 0.1 mm 3 mps 735 mmHg 60%
    13:00 +28°C° 0.1 mm 3 mps 735 mmHg 58%
    14:00 +28°C° 0.1 mm 3 mps 735 mmHg 56%
    15:00 +28°C° 0.1 mm 3 mps 735 mmHg 57%
    16:00 +28°C° 0.1 mm 3 mps 735 mmHg 58%
    17:00 +28°C° 0.1 mm 3 mps 735 mmHg 59%
    18:00 +26°C° 0 mm 3 mps 735 mmHg 64%
    19:00 +24°C° 0 mm 2 mps 735 mmHg 69%
    20:00 +21°C° 0 mm 2 mps 735 mmHg 74%
    21:00 +20°C° 0 mm 2 mps 735 mmHg 75%
    22:00 +19°C° 0 mm 2 mps 736 mmHg 77%
    23:00 +18°C° 0 mm 3 mps 736 mmHg 78%

    24 July, Tuesday

    Time Temperature Precipitation Wind Pressure Humidity
    00:00 +18°C° 0 mm 2 mps 736 mmHg 80%
    01:00 +17°C° 0 mm 2 mps 736 mmHg 82%
    02:00 +17°C° 0 mm 2 mps 736 mmHg 84%
    03:00 +16°C° 0 mm 2 mps 736 mmHg 86%
    04:00 +16°C° 0 mm 2 mps 736 mmHg 89%
    05:00 +16°C° 0 mm 2 mps 737 mmHg 91%
    06:00 +17°C° 0 mm 2 mps 737 mmHg 87%
    07:00 +19°C° 0 mm 3 mps 737 mmHg 82%
    08:00 +21°C° 0 mm 3 mps 738 mmHg 78%
    09:00 +22°C° 0 mm 3 mps 738 mmHg 72%
    10:00 +25°C° 0 mm 4 mps 738 mmHg 66%
    11:00 +26°C° 0 mm 4 mps 738 mmHg 60%
    12:00 +27°C° 0 mm 4 mps 737 mmHg 58%
    13:00 +27°C° 0 mm 4 mps 737 mmHg 56%
    14:00 +28°C° 0 mm 4 mps 737 mmHg 54%
    15:00 +28°C° 0 mm 4 mps 737 mmHg 56%
    16:00 +28°C° 0 mm 4 mps 737 mmHg 57%
    17:00 +28°C° 0 mm 3 mps 737 mmHg 59%
    18:00 +26°C° 0 mm 3 mps 737 mmHg 64%
    19:00 +24°C° 0 mm 3 mps 737 mmHg 69%
    20:00 +23°C° 0 mm 2 mps 737 mmHg 73%
    21:00 +21°C° 0 mm 3 mps 737 mmHg 76%
    22:00 +20°C° 0 mm 3 mps 738 mmHg 79%
    23:00 +19°C° 0 mm 3 mps 738 mmHg 81%
    Show more